GFSFLT1_con_lsi_000.txt.gz
Lid_Strength_Index
8 8 8 8 7 5 5 5 4 5 6 7 7 7 7 6 6 6 4 4 4 5 5 5 6 7 8 8 8 9 9 9
9 9 8 8 7 7 7 7 7 7 8 8 8 8 8 8 7 6 6 4 4 4 5 5 5 6 6 7 8 8 9 9
9 9 9 8 7 7 8 8 8 8 8 8 8 9 9 8 8 7 7 6 5 4 4 5 5 5 7 7 8 8 8 9
9 9 9 9 8 8 8 8 8 8 8 8 8 9 8 8 7 8 7 6 5 4 4 5 5 5 5 6 7 8 8 9
9 9 9 9 9 9 8 8 8 7 7 8 8 9 9 7 7 6 6 6 6 5 4 4 5 5 5 6 6 7 8 9
10 9 9 9 9 9 8 7 7 7 7 7 7 8 7 7 6 7 6 6 7 6 6 5 5 6 6 6 7 7 8 9
8 9 8 8 8 8 7 7 7 7 7 7 8 9 8 7 7 7 7 7 8 8 7 7 8 8 8 8 8 8 9 8
10 9 8 8 8 8 7 8 7 7 7 8 9 8 8 8 7 7 8 8 10 10 9 8 8 8 7 7 7 7 7 7
8 8 9 8 8 8 8 8 7 7 7 9 8 7 7 7 7 8 9 9 9 8 7 7 7 6 6 6 6 5 5 6
9 7 7 7 7 7 7 7 7 7 8 9 9 8 7 7 8 9 9 9 7 7 7 7 6 5 5 5 5 6 6 6
7 7 7 6 7 7 7 7 7 7 9 8 8 8 8 8 9 9 9 8 7 7 7 6 6 7 6 5 5 5 5 5
8 7 7 7 7 7 7 7 7 7 9 9 9 8 8 9 9 9 8 7 7 7 6 7 6 5 5 5 5 5 6 6
8 7 7 7 7 7 7 7 7 8 8 9 9 10 11 10 10 9 8 7 7 7 6 6 5 5 6 6 6 6 7 8
7 7 7 7 7 7 7 7 8 8 8 9 10 11 11 11 9 8 7 7 6 6 5 5 5 5 6 7 7 8 8 8
8 7 7 7 7 7 7 8 8 8 8 9 10 10 10 10 8 7 6 5 5 4 4 4 5 7 7 7 8 9 10 10
8 7 6 7 6 6 7 7 7 7 8 7 8 7 7 7 6 5 4 4 3 3 4 6 7 7 7 8 9 9 10 10
7 7 7 7 6 7 7 7 7 7 8 8 6 5 5 5 4 4 3 3 4 4 7 8 9 8 6 7 7 9 10 10
8 7 6 6 7 8 8 8 8 8 7 7 7 7 5 5 4 4 5 7 8 9 9 9 9 9 7 7 8 9 10 10
7 7 6 7 7 8 9 9 9 10 9 8 7 7 7 7 8 8 9 9 10 10 10 9 10 10 8 8 8 10 11 10

GFSFLT1_con_lsi_003.txt.gz
Lid_Strength_Index
7 4 3 3 3 2 0 0 -0 -0 0 1 2 2 2 2 1 1 1 1 -0 -0 -0 -1 -0 1 1 1 2 3 3 3
5 5 4 3 3 1 1 1 1 2 3 3 3 3 3 3 3 3 2 2 1 1 0 -0 -0 1 1 1 2 3 3 3
6 5 4 3 2 2 3 4 4 4 4 4 4 4 3 4 3 3 2 2 2 2 1 1 0 1 0 0 1 2 3 3
5 5 4 4 4 4 5 4 4 4 4 4 3 3 3 4 4 3 3 2 2 2 2 2 1 1 1 0 0 1 3 2
5 5 5 5 5 4 3 4 4 4 4 4 5 5 6 4 4 4 3 3 2 2 2 2 2 1 1 1 0 0 1 2
6 6 5 5 4 4 4 4 4 4 5 5 4 4 4 4 4 4 4 3 2 3 3 3 3 2 2 1 1 1 1 1
6 5 5 5 4 4 4 4 4 3 4 4 4 4 4 4 4 4 4 4 4 4 4 4 4 3 3 3 3 3 3 3
6 6 5 5 4 4 4 4 4 3 3 5 4 3 3 4 4 4 5 5 5 5 5 4 4 3 3 3 3 3 4 4
6 6 5 5 4 4 4 4 4 3 3 5 4 3 4 4 4 4 5 5 5 5 4 3 3 3 3 2 3 3 4 5
6 5 5 4 4 4 4 4 4 3 3 5 4 4 5 5 5 5 6 5 4 4 4 4 4 3 4 4 4 4 5 5
5 5 4 4 4 4 4 4 4 4 4 5 5 5 5 6 6 6 5 4 3 4 4 5 5 5 4 4 4 3 3 3
5 5 5 5 5 4 4 4 4 4 5 5 5 5 6 7 6 5 5 4 4 4 4 4 4 4 4 3 3 3 3 3
5 5 5 5 4 4 4 4 4 5 5 5 5 6 7 7 6 5 4 5 4 4 4 3 3 3 2 3 4 4 4 5
5 5 5 5 5 5 4 4 5 5 5 5 6 6 7 7 5 4 4 4 3 3 2 2 2 3 3 4 4 5 5 5
6 5 5 5 5 5 5 5 5 5 5 5 5 5 5 5 4 4 3 3 3 2 2 1 2 4 5 5 5 5 6 6
6 6 6 6 5 5 5 5 5 4 5 5 5 5 4 5 5 5 3 2 2 2 2 3 5 5 6 5 6 6 7 7
7 7 7 6 5 6 6 6 5 5 6 7 7 6 5 5 5 4 3 4 5 5 6 6 6 6 6 6 6 6 7 7
8 7 6 6 5 6 6 6 6 6 7 7 6 5 5 6 5 5 6 6 6 6 6 6 6 6 7 7 7 7 8 8
7 7 6 5 4 5 6 6 7 7 7 6 5 5 6 6 6 6 6 6 7 7 6 6 7 7 8 8 8 7 8 8

GFSFLT1_con_lsi_006.txt.gz
Lid_Strength_Index
2 2 2 1 0 -0 -0 -0 -0 -1 -2 -2 -1 -1 -1 -1 -0 0 0 0 -0 -1 -1 -2 -2 -1 -1 -1 -0 -1 -0 0
3 2 1 1 0 0 0 -0 0 -0 0 1 1 1 1 0 0 0 0 0 0 -0 0 -0 -1 -0 -1 -1 -0 0 0 -0
2 1 1 1 0 0 1 1 1 1 1 1 1 1 1 1 1 0 0 1 1 2 1 1 1 1 0 -0 -0 1 0 -0
3 2 2 1 1 1 1 1 2 1 1 1 1 0 1 1 2 2 2 2 2 2 1 1 1 1 1 0 0 0 1 0
3 3 2 2 1 1 2 2 1 2 1 2 2 2 3 2 2 2 2 2 2 2 2 1 1 1 1 1 1 1 1 2
3 3 3 2 2 1 1 1 2 2 2 1 2 2 2 2 2 2 2 2 2 2 2 1 1 1 1 1 1 0 0 1
3 3 2 2 1 1 1 2 2 1 1 2 2 2 2 3 3 3 3 3 2 2 2 1 1 1 1 1 1 1 1 1
3 3 3 2 2 2 2 2 2 2 2 3 2 2 2 3 3 3 4 4 3 2 2 1 1 1 1 0 0 1 3 3
3 3 3 2 2 2 2 2 3 2 3 3 2 2 2 2 3 3 3 3 2 2 2 1 1 1 1 1 2 3 3 3
3 3 2 2 2 3 2 2 2 2 2 1 2 1 2 3 3 3 3 2 2 2 1 2 2 2 2 2 3 3 3 3
3 3 3 3 2 2 1 1 2 1 1 1 2 2 2 3 3 3 3 2 1 2 3 3 3 2 1 1 2 2 2 2
3 3 2 2 2 2 2 2 2 2 2 2 2 3 3 3 3 3 3 2 2 3 3 2 2 2 2 2 2 2 2 2
3 3 2 2 2 2 2 2 2 3 3 3 3 3 3 3 3 3 3 3 2 2 2 2 1 1 1 2 2 2 2 3
3 3 3 3 3 4 4 4 3 3 3 3 3 3 3 3 3 3 3 3 2 2 2 1 1 2 2 2 2 3 3 3
3 3 3 4 5 5 4 3 3 4 3 4 3 2 3 3 3 3 3 3 2 2 2 2 2 3 3 3 3 3 4 4
4 5 5 5 4 4 3 3 4 4 4 4 4 3 3 3 3 3 3 3 3 3 3 3 3 4 4 4 4 4 4 4
6 7 7 6 5 4 4 4 4 4 5 4 4 3 3 3 3 3 3 3 3 4 4 4 4 4 6 6 5 5 5 5
8 7 6 5 4 3 4 4 3 3 3 4 3 3 4 4 3 4 4 4 4 4 4 4 4 4 7 7 7 6 6 5
7 6 5 4 3 3 3 3 3 3 3 3 2 3 4 4 4 4 4 4 4 4 4 4 4 4 6 6 7 5 5 5

GFSFLT1_con_lsi_009.txt.gz
Lid_Strength_Index
2 1 1 0 1 0 -0 -0 -1 -1 -1 -1 -1 -1 -1 -1 -1 -0 -1 -1 -1 -1 -1 -1 -2 -0 -0 -0 -0 -0 0 0
1 1 1 1 1 1 0 0 -0 -1 -1 0 1 1 0 -0 -0 -0 -0 -0 0 0 1 0 -0 0 -0 -1 -0 0 1 0
2 1 1 1 1 0 1 1 1 0 0 1 0 -0 0 -0 -0 -0 0 0 1 1 1 1 1 1 -0 -0 -0 1 1 0
2 2 1 1 1 0 0 0 1 1 1 1 1 0 0 1 1 1 0 1 1 1 1 1 1 0 1 -0 -0 0 2 1
2 2 2 1 1 1 1 1 1 1 1 1 1 2 2 1 1 1 1 1 2 2 2 1 1 1 0 0 1 0 0 2
3 2 2 1 1 0 0 1 1 1 1 1 1 1 1 1 1 2 2 2 2 2 1 1 1 1 1 0 1 1 1 2
2 2 2 1 0 0 0 1 1 1 1 1 1 2 2 3 2 3 3 2 2 1 2 1 1 1 1 1 1 1 2 2
3 2 2 2 1 1 0 1 1 1 1 1 2 2 2 2 2 3 3 3 3 2 2 1 1 1 1 1 1 2 2 4
3 2 2 2 1 1 1 1 1 1 1 1 1 1 2 2 2 3 3 3 2 2 1 1 1 1 1 1 2 1 2 2
3 2 2 2 1 1 1 1 1 0 0 0 1 1 2 3 3 3 3 2 2 1 1 1 1 1 2 2 2 2 2 1
3 2 2 2 1 1 0 0 1 1 1 2 2 2 2 3 3 3 3 3 3 1 1 2 2 2 2 2 2 1 1 1
3 3 3 2 1 1 1 2 2 2 2 2 3 3 3 3 3 3 3 4 2 2 1 1 1 2 1 1 1 1 1 1
3 3 3 2 2 2 2 2 3 3 3 3 3 3 3 3 3 4 3 2 1 1 1 1 1 1 1 1 2 2 2 2
3 3 3 3 3 3 3 3 3 3 3 3 3 3 4 3 3 2 2 2 2 1 1 1 2 2 2 3 3 3 3 3
4 4 4 4 4 4 4 3 3 3 3 3 3 3 3 3 3 3 2 2 3 2 2 2 3 3 3 3 3 3 3 3
5 4 4 5 5 4 4 3 3 3 3 3 3 3 2 2 2 2 2 2 2 2 3 3 3 3 4 4 4 4 4 4
5 5 5 5 5 5 4 3 3 2 3 3 3 2 2 2 2 2 3 3 3 3 3 3 3 3 5 6 5 5 5 5
5 6 6 5 5 4 3 2 2 3 3 2 2 2 2 2 2 3 3 3 3 4 3 3 3 3 6 5 5 4 4 4
6 5 5 4 4 3 3 2 2 2 2 2 2 2 2 2 2 3 3 3 4 4 3 3 3 3 4 5 5 4 4 4

GFSFLT1_con_lsi_012.txt.gz
Lid_Strength_Index
2 2 1 1 1 1 1 0 1 -0 -0 -0 -0 -0 -0 -0 -0 0 -0 -0 -0 0 1 1 0 1 2 1 2 2 2 2
3 2 1 1 1 1 1 1 0 0 1 1 1 1 0 0 0 0 0 0 1 1 2 2 2 3 2 2 3 3 3 2
3 2 2 2 1 1 1 2 2 1 1 1 1 1 1 1 -0 0 0 1 1 2 2 3 2 3 3 3 2 3 3 3
3 3 2 2 2 2 2 2 2 2 1 1 1 1 1 1 2 2 1 1 1 2 3 2 2 3 3 3 3 3 4 4
3 3 2 2 2 1 1 1 1 1 1 1 2 2 3 2 1 1 2 2 2 3 3 2 2 2 3 3 2 3 3 5
3 3 2 2 1 1 1 1 1 1 1 1 2 1 2 2 2 2 2 3 3 3 3 3 3 3 3 2 3 3 3 4
3 2 2 2 1 1 1 1 1 1 1 1 2 3 3 3 3 4 4 4 4 3 3 3 2 3 3 3 3 4 4 4
3 3 2 2 1 1 1 1 1 1 1 2 2 2 2 3 4 4 5 5 4 4 3 3 3 3 3 3 3 4 3 4
3 2 2 2 1 1 1 1 2 1 1 2 2 2 3 3 4 4 4 4 4 3 3 3 3 3 4 4 3 3 3 3
3 2 2 2 2 2 1 2 2 2 2 2 2 3 3 4 4 4 4 4 4 4 4 4 4 3 2 3 3 3 2 2
3 3 2 2 2 1 1 2 2 2 3 3 3 3 3 4 4 4 4 4 3 4 3 3 2 2 2 2 2 2 2 1
3 3 3 2 2 2 2 3 3 3 3 3 3 4 4 3 4 4 4 3 3 2 2 2 2 2 2 2 2 1 2 2
4 3 3 3 3 3 3 3 3 3 3 4 4 4 4 4 3 3 3 3 2 2 2 2 2 2 2 2 2 3 3 3
4 3 3 3 3 3 4 4 4 4 4 4 4 4 4 4 3 3 2 2 2 3 3 3 3 3 4 4 4 4 4 5
4 4 4 4 5 5 5 4 3 3 4 4 4 4 4 4 3 3 2 2 3 3 3 3 3 4 4 4 4 5 5 5
5 5 5 5 5 5 5 4 3 3 4 4 4 3 4 4 2 2 2 2 3 3 3 3 4 4 5 5 5 6 6 6
6 5 6 6 5 5 5 5 3 3 3 3 2 1 2 2 2 2 2 3 3 3 3 4 4 4 5 5 6 7 5 6
6 6 6 6 6 6 6 5 3 3 2 2 2 2 2 1 2 2 3 3 3 3 4 4 4 4 5 5 5 6 7 7
6 6 6 6 6 6 5 5 4 4 3 3 1 1 1 2 2 3 2 3 4 4 4 4 5 5 4 4 5 7 7 7

GFSFLT1_con_lsi_015.txt.gz
Lid_Strength_Index
3 3 2 2 3 1 1 1 1 1 2 3 3 3 2 2 3 3 2 3 2 3 4 4 4 4 4 4 5 5 5 5
3 3 3 3 3 4 4 3 4 4 4 4 4 4 3 3 3 2 3 3 3 3 4 4 4 4 5 5 5 5 5 5
4 4 4 4 5 5 4 5 4 4 4 4 4 3 3 3 3 2 2 3 3 3 5 5 5 5 5 5 6 6 6 5
5 5 5 6 5 6 4 4 4 4 4 4 4 4 4 3 3 3 3 4 4 5 5 5 5 5 5 6 5 5 6 5
4 5 5 4 4 4 4 3 4 3 4 4 4 4 4 4 4 5 5 5 5 4 4 5 5 5 5 5 3 5 5 6
5 4 4 3 4 4 4 4 3 3 3 4 4 5 5 4 5 6 6 5 5 5 4 5 5 4 5 5 5 6 6 6
4 4 3 3 4 4 4 3 3 3 3 4 5 5 5 6 6 6 6 6 5 5 5 5 5 5 5 5 4 5 4 5
5 5 4 4 4 4 4 4 3 3 4 4 4 5 6 6 7 7 7 7 6 6 6 5 5 5 5 5 5 4 4 5
5 5 5 5 4 4 4 4 4 4 4 4 4 5 5 6 6 6 7 6 6 6 6 5 5 5 5 5 4 5 4 4
5 5 5 5 4 4 4 4 4 4 4 5 5 5 6 6 6 6 6 6 5 5 5 4 4 4 3 4 4 4 3 3
5 5 5 5 4 4 4 4 5 5 5 5 5 5 5 6 6 6 6 6 5 5 4 4 4 3 2 2 3 3 3 3
6 5 5 5 5 5 5 5 5 6 6 6 6 6 6 6 6 6 6 5 5 4 4 3 3 3 3 3 3 3 3 3
6 5 6 6 6 5 6 6 6 6 6 6 6 6 7 7 6 6 5 5 4 4 4 4 4 4 4 5 5 5 6 6
6 6 6 6 7 7 7 7 6 6 6 6 6 6 6 7 6 6 5 5 5 5 5 5 4 4 4 4 5 6 6 6
7 7 7 7 7 7 7 7 6 6 6 6 6 5 5 5 5 5 4 4 5 5 5 4 3 3 4 5 6 6 7 6
7 8 8 8 8 8 7 7 7 5 5 6 6 4 5 5 3 3 2 4 5 4 5 5 4 5 5 7 7 7 8 7
8 7 8 8 8 9 8 8 7 6 6 5 4 5 4 3 3 1 3 5 5 5 5 5 5 5 5 5 6 8 7 7
8 8 7 8 9 9 9 9 8 8 7 5 4 4 3 3 1 1 3 5 5 5 5 5 6 6 4 4 5 7 7 8
8 8 9 9 10 10 9 9 9 8 7 5 4 4 3 3 2 2 4 5 5 6 6 6 6 5 4 4 4 7 8 7

GFSFLT1_con_lsi_018.txt.gz
Lid_Strength_Index
5 4 3 3 3 2 2 2 1 2 4 4 4 4 3 4 4 3 3 3 3 5 5 5 5 5 5 6 6 6 6 6
5 5 5 6 6 5 4 4 4 4 5 5 5 5 4 5 4 4 3 4 4 5 5 5 5 5 6 6 6 6 6 6
6 6 5 5 5 5 5 5 5 5 5 4 4 5 5 4 3 4 4 5 5 5 6 6 5 6 6 6 6 6 6 6
6 6 6 7 6 6 5 5 4 5 4 4 4 4 4 4 5 5 5 5 5 5 5 6 6 6 6 6 6 6 7 6
6 6 6 6 6 6 5 4 4 4 4 4 5 5 5 5 6 6 6 5 5 5 5 6 6 6 6 6 5 6 6 7
6 5 5 4 4 5 4 4 4 4 4 4 5 6 6 6 6 6 6 6 6 6 6 6 6 6 6 6 6 6 6 7
6 5 4 5 5 5 5 4 4 4 4 5 6 5 6 7 7 7 6 6 7 6 6 6 6 6 6 6 6 6 6 6
6 6 5 5 5 5 4 4 4 4 5 5 5 6 7 7 6 6 6 7 7 8 7 6 6 6 5 5 5 4 4 5
7 7 6 6 5 6 5 5 5 5 5 6 6 6 6 6 6 7 7 8 7 7 6 5 5 5 5 5 5 5 4 4
6 6 6 6 6 5 5 5 5 5 6 6 6 6 5 6 7 7 8 7 6 6 6 6 5 5 5 4 5 4 4 4
6 6 6 6 5 6 6 6 6 6 6 6 6 6 6 7 8 8 8 7 6 6 6 6 5 5 5 4 5 4 4 4
7 6 6 7 6 7 7 7 7 7 7 7 7 7 7 7 8 7 7 7 6 5 5 6 5 5 5 6 6 5 5 6
7 7 7 7 8 8 8 8 7 7 6 7 7 7 8 8 8 7 6 6 5 5 4 4 5 5 6 6 6 6 6 7
8 8 8 8 8 8 8 8 8 8 7 8 7 7 8 8 7 7 6 6 5 4 5 4 5 5 6 6 6 7 7 7
8 8 8 9 8 8 9 9 8 7 7 7 8 7 7 7 7 5 4 5 3 3 4 4 5 5 5 6 6 7 8 7
8 8 9 9 9 9 10 9 9 8 8 8 8 7 7 6 6 5 4 3 3 4 4 5 5 5 6 7 7 7 8 8
8 8 9 8 10 10 10 10 10 9 10 8 7 6 6 5 5 5 4 3 4 5 4 5 6 5 5 5 5 8 7 8
9 9 9 10 11 10 11 10 10 10 8 8 7 6 6 6 5 3 3 4 5 5 5 5 7 6 4 4 4 7 7 8
9 10 11 11 11 11 11 10 10 10 9 8 7 6 6 5 4 4 3 5 5 6 6 7 7 6 4 5 5 7 8 8

GFSFLT1_con_lsi_021.txt.gz
Lid_Strength_Index
4 3 3 3 3 2 2 1 2 3 4 5 4 5 5 5 5 5 5 4 5 5 5 5 5 6 6 6 7 6 7 6
6 6 5 5 5 4 3 3 4 5 5 5 5 6 5 4 4 5 5 5 5 6 6 6 6 6 7 7 7 7 6 6
7 7 7 6 5 5 6 6 6 6 5 5 4 3 3 4 5 5 5 5 5 5 6 6 6 6 6 6 7 7 6 6
6 6 6 6 7 7 6 5 5 4 4 4 4 4 4 5 6 7 6 6 6 6 6 6 6 6 7 7 7 7 8 7
6 7 7 7 7 7 6 5 5 4 4 5 5 5 6 6 7 7 7 6 6 5 6 6 7 7 7 7 6 7 8 8
7 7 6 6 7 6 6 5 5 5 5 5 5 6 6 7 7 7 6 6 6 5 6 7 8 7 8 8 7 7 7 7
6 6 6 6 6 6 6 5 5 5 5 6 6 7 7 7 7 6 6 6 6 7 7 7 7 8 7 7 7 7 7 7
7 6 6 6 6 6 6 5 5 5 5 6 6 6 7 7 7 7 7 8 8 9 8 7 7 7 7 6 6 6 6 7
7 7 7 6 6 6 7 6 6 5 6 6 6 7 7 7 7 8 8 8 8 8 8 7 7 6 6 6 6 6 5 5
8 7 7 7 7 7 6 6 6 6 6 7 7 7 7 7 7 8 8 8 7 8 8 7 6 6 6 5 6 6 5 5
8 7 7 6 6 7 7 7 7 6 6 7 7 7 7 7 8 8 8 8 8 7 6 7 7 6 7 6 6 5 5 6
8 7 7 7 7 8 8 8 8 7 7 8 8 8 8 8 8 8 8 8 7 6 6 6 7 7 6 6 6 5 6 7
7 7 8 8 8 9 9 9 9 9 8 8 8 8 8 8 8 8 8 8 8 7 7 6 5 5 5 6 5 5 7 8
9 8 9 9 8 8 9 10 9 8 9 9 9 9 8 8 8 8 8 8 7 7 5 6 5 5 5 5 6 7 7 7
9 9 9 9 9 10 11 10 10 9 10 9 9 8 8 8 9 9 8 7 6 5 5 5 5 4 5 6 7 7 7 7
9 9 9 9 10 11 11 11 10 10 10 9 9 8 8 8 8 8 7 5 4 4 5 6 5 5 6 7 7 7 8 8
9 9 9 10 11 12 11 11 11 10 10 9 8 8 8 8 8 7 6 5 5 5 5 6 6 6 4 4 5 7 7 8
9 9 10 11 12 12 12 11 11 11 10 9 9 9 8 8 7 7 6 5 4 7 6 7 7 7 4 5 5 7 8 8
10 11 12 12 12 12 12 12 12 11 10 9 9 9 9 8 7 7 7 6 6 7 8 7 8 7 6 6 6 9 9 9

GFSFLT1_con_lsi_024.txt.gz
Lid_Strength_Index
4 3 2 2 2 2 2 2 2 3 4 4 4 5 6 5 5 4 6 4 5 5 5 6 6 7 7 7 7 7 7 6
5 5 4 3 2 2 2 2 2 5 5 6 6 6 5 4 5 5 5 5 6 7 7 6 6 7 7 7 7 7 7 7
7 6 5 4 4 3 4 4 4 5 5 5 5 4 4 5 6 7 7 7 6 6 7 7 7 7 7 7 7 7 7 7
7 6 6 6 7 7 6 5 5 4 4 4 5 5 5 7 8 8 7 6 6 6 6 6 7 7 7 8 8 8 9 8
7 7 8 8 8 7 6 6 6 5 5 5 6 6 6 7 8 8 7 6 6 6 6 6 7 7 8 8 7 8 8 9
7 8 8 8 7 8 7 6 6 5 5 5 6 7 8 8 8 7 6 6 6 6 7 8 8 8 8 8 8 8 8 8
7 7 7 7 7 7 6 6 6 5 6 6 6 7 7 8 8 7 7 7 7 8 7 8 8 8 8 8 8 8 8 8
8 7 7 7 7 8 7 6 6 6 6 6 6 7 7 8 8 8 8 8 8 9 8 8 8 8 7 8 8 8 8 8
7 7 7 7 7 7 7 7 7 6 6 7 7 7 8 8 8 8 8 9 9 9 8 8 8 7 7 7 7 7 7 7
8 8 8 7 7 7 7 7 7 7 7 7 7 8 8 8 8 8 9 9 8 9 8 7 7 7 7 7 7 7 7 6
9 8 8 8 8 8 8 8 8 7 7 8 8 8 8 8 9 9 9 9 9 7 7 8 8 8 7 8 7 7 6 6
9 8 8 8 9 9 9 9 9 8 8 8 9 9 9 9 9 9 9 8 8 8 8 8 8 7 7 7 6 6 6 6
9 9 8 8 9 9 9 10 9 9 9 10 10 9 9 10 10 9 9 9 9 8 9 7 6 6 7 6 7 6 6 7
9 9 9 9 9 9 10 9 10 10 10 11 10 10 10 10 10 9 9 9 9 8 6 6 7 7 6 6 7 7 7 7
10 10 10 10 9 9 10 10 10 10 11 11 10 10 10 10 10 9 9 9 8 7 6 5 6 6 6 6 7 7 7 7
10 10 9 9 9 11 11 11 11 11 11 10 10 10 9 9 9 9 9 8 7 7 7 7 6 6 6 7 7 7 7 8
9 9 9 9 11 12 12 12 12 11 12 10 9 10 9 9 10 9 9 8 7 6 7 7 7 6 4 4 6 7 8 8
9 9 10 11 12 12 12 12 12 12 12 10 10 10 10 10 10 9 9 7 6 8 8 8 8 7 5 6 6 8 9 9
9 9 11 12 12 13 13 12 12 13 11 10 10 10 10 10 10 9 9 9 8 9 8 8 8 7 7 7 7 9 10 9

GFSFLT1_con_lsi_027.txt.gz
Lid_Strength_Index
3 2 1 1 1 0 0 -0 1 3 3 3 3 3 4 3 3 3 3 3 2 3 3 3 2 3 3 3 4 4 4 4
3 2 1 1 1 1 0 2 2 3 3 4 3 3 3 3 3 2 3 3 3 3 3 3 3 4 4 4 4 5 5 4
4 3 2 1 1 1 1 1 3 3 2 1 0 1 2 3 3 4 4 3 3 3 3 3 3 4 4 4 4 5 4 4
4 3 2 2 2 1 1 1 2 1 1 1 2 3 4 4 4 4 4 3 3 3 3 3 3 3 4 4 4 5 6 5
4 3 4 4 4 3 3 3 2 2 2 2 2 2 2 3 3 3 3 4 4 3 3 4 4 4 5 5 4 5 5 7
4 5 5 5 4 3 3 3 3 3 3 3 2 3 4 4 3 4 3 3 4 4 4 4 4 4 4 5 5 5 5 6
5 5 5 4 4 3 3 4 4 3 3 2 3 3 3 3 3 3 3 3 3 4 5 4 4 4 5 5 5 5 5 5
5 5 5 4 4 3 3 3 3 3 3 3 2 3 3 4 4 4 4 4 4 4 5 5 5 4 4 4 4 4 5 5
5 4 4 4 4 3 3 3 4 3 3 3 3 4 4 4 4 4 4 4 5 4 5 5 4 4 4 4 4 4 4 5
5 5 5 4 4 4 4 4 4 4 4 4 4 4 4 4 5 5 5 5 5 5 5 5 4 4 4 4 5 5 5 4
5 6 5 5 5 5 5 5 5 4 4 4 4 5 5 5 5 5 5 5 5 5 4 4 5 5 5 5 5 4 4 3
6 6 5 6 6 6 6 6 6 5 5 6 6 6 6 6 6 5 5 5 5 5 5 5 5 7 5 4 4 4 3 3
6 6 6 6 7 6 7 7 6 6 7 7 6 6 6 6 6 6 6 6 6 6 6 6 5 5 4 3 4 3 3 3
7 7 7 7 7 7 7 7 6 7 7 7 7 6 7 7 7 7 7 6 6 5 6 5 5 4 4 4 4 4 4 4
7 7 7 7 7 7 8 8 7 7 8 7 7 7 7 7 7 7 7 6 6 5 5 6 5 5 4 4 4 4 4 4
8 7 8 7 7 7 8 8 8 8 8 8 7 7 7 7 7 7 6 6 6 6 7 6 5 5 5 3 3 4 5 5
8 8 8 7 8 8 9 8 8 8 9 9 7 7 7 7 7 7 6 6 6 6 6 5 5 5 5 5 5 5 6 7
8 8 8 8 8 9 9 9 9 9 9 9 8 8 8 7 7 7 7 6 6 5 5 5 5 5 6 6 6 6 7 7
8 7 8 9 9 9 9 9 10 10 9 9 8 8 8 8 8 8 7 6 5 4 5 5 5 6 6 7 7 6 7 7

GFSFLT1_con_lsi_030.txt.gz
Lid_Strength_Index
2 1 1 0 0 -0 -0 -0 -1 0 2 1 1 1 1 1 1 1 1 1 0 0 1 0 1 1 2 2 3 3 3 4
2 2 1 1 0 0 0 0 0 0 0 2 2 2 2 2 1 1 1 1 1 1 0 1 1 2 2 3 3 3 4 3
3 2 1 1 1 1 0 0 -0 -0 -0 -0 -1 -0 0 1 1 1 1 1 1 1 1 1 2 2 2 3 3 4 4 4
3 3 2 1 1 1 1 0 -0 -1 -1 -1 -1 -0 1 2 1 1 1 1 1 1 1 2 2 3 4 3 3 4 6 5
3 3 2 2 1 0 0 -0 -0 -1 -1 -0 0 -0 0 -1 -1 0 1 1 1 2 2 2 2 3 3 4 4 4 5 6
3 3 2 1 1 1 0 -0 -0 0 -0 -0 -0 0 0 1 1 2 1 1 1 2 2 2 2 2 3 3 4 4 4 5
3 2 2 2 1 0 -0 0 0 -0 -0 -0 0 0 1 1 1 2 3 2 2 2 2 2 2 2 3 3 3 4 5 5
3 3 3 2 2 1 0 0 1 0 0 1 1 2 2 3 3 3 3 3 3 3 2 2 2 2 3 3 4 4 4 5
3 3 2 2 2 1 1 1 1 1 1 2 2 3 1 2 2 2 3 4 4 3 3 3 3 3 3 3 4 4 3 4
3 2 2 2 1 1 1 2 2 3 3 3 3 2 2 3 4 4 4 4 5 5 4 4 4 4 4 3 4 4 4 4
3 2 2 2 1 2 2 3 3 4 3 3 3 3 4 4 4 5 5 5 5 5 5 5 5 4 3 3 4 4 4 3
3 2 2 2 3 3 4 4 4 4 4 4 4 5 5 4 5 5 5 5 5 6 6 5 5 4 4 4 4 3 3 2
3 3 3 4 4 4 5 5 5 5 5 5 5 5 5 5 5 6 5 6 6 6 5 5 5 5 4 4 4 3 3 2
3 4 4 4 5 5 5 5 5 5 6 6 6 6 5 6 6 6 6 6 6 5 5 5 5 5 4 4 4 3 2 2
4 4 4 5 5 5 5 5 5 6 6 6 6 5 5 6 6 6 6 6 6 5 5 5 5 5 5 4 3 3 2 2
4 4 5 5 5 5 5 6 6 6 7 6 6 5 5 6 6 6 6 6 5 5 5 5 5 4 4 3 2 2 2 3
5 4 5 5 5 5 7 6 6 7 7 6 6 6 6 6 6 6 6 6 6 5 6 6 5 4 7 7 6 3 3 4
4 5 5 5 5 7 6 6 7 7 7 7 7 6 7 7 7 7 7 7 5 6 6 4 4 3 7 7 7 4 4 4
4 4 5 5 6 6 6 7 7 7 8 8 7 7 7 7 7 7 7 6 6 6 5 4 3 4 7 7 7 4 4 4

GFSFLT1_con_lsi_036.txt.gz
Lid_Strength_Index
2 2 1 1 1 1 1 0 0 -0 -0 -0 -0 -0 -0 -0 1 1 1 1 -0 -0 0 1 1 2 2 3 3 4 5 5
2 2 1 1 1 1 1 1 0 0 1 1 1 1 1 1 1 -0 -0 -0 0 0 1 1 1 2 3 3 4 5 5 5
3 2 2 2 2 1 1 1 1 0 0 1 0 1 0 -0 -0 -0 0 0 0 1 2 2 2 3 3 4 4 6 6 6
4 3 3 2 2 2 1 1 1 0 0 0 0 0 0 1 1 1 1 1 1 2 2 2 3 3 4 4 5 6 7 7
4 3 3 2 2 1 1 1 1 0 0 1 1 2 2 1 1 1 1 1 2 2 2 3 3 3 4 4 4 5 6 8
4 3 3 2 2 2 1 1 1 0 0 0 1 2 1 1 1 1 1 1 1 1 2 3 3 3 4 4 4 5 5 7
3 3 2 2 2 1 1 1 1 1 0 0 1 1 1 2 2 2 3 3 4 4 4 4 4 4 4 5 5 5 6 6
4 4 3 3 2 2 1 2 1 1 1 1 1 1 2 3 4 4 4 4 5 5 5 5 5 5 5 5 5 5 6 6
4 3 3 3 2 2 2 1 1 1 1 1 1 2 3 4 3 4 5 6 6 5 6 5 5 5 6 6 6 6 5 6
4 3 3 2 2 2 2 1 1 1 1 1 2 3 4 4 4 4 5 6 6 5 6 6 6 6 6 6 7 6 6 6
3 3 3 2 2 2 1 1 1 1 2 2 3 3 4 4 5 5 6 6 6 6 6 6 7 6 6 7 7 6 7 6
4 3 2 2 2 2 2 1 2 3 4 4 4 4 5 5 5 5 6 7 6 6 6 7 7 7 7 7 7 7 7 7
3 3 3 2 2 2 2 2 3 4 4 4 5 5 5 6 5 6 6 7 6 7 7 7 7 7 7 8 8 7 7 7
3 3 3 3 2 2 2 2 4 4 4 6 6 5 6 6 5 6 6 6 7 7 7 7 7 7 8 8 8 7 7 7
4 3 3 3 2 2 2 3 4 4 5 5 6 6 6 6 6 6 6 6 7 7 7 6 6 7 8 7 7 8 7 7
4 4 3 3 3 3 3 4 4 4 5 6 6 5 6 5 6 6 6 6 7 6 6 7 7 8 7 8 8 9 9 9
4 3 3 3 3 3 3 4 4 5 5 5 5 6 6 6 7 6 7 7 7 7 7 7 8 7 10 10 9 10 8 7
4 3 3 3 2 3 3 4 4 4 5 6 6 6 6 7 7 7 7 7 7 8 7 7 8 8 9 9 10 9 9 8
3 3 3 2 2 3 4 4 4 6 7 6 6 7 7 8 7 7 7 7 8 8 8 7 7 7 9 8 9 10 8 7

GFSFLT1_con_lsi_039.txt.gz
Lid_Strength_Index
3 3 2 2 2 1 1 2 3 3 2 1 1 1 2 2 2 2 3 3 2 2 2 3 3 4 5 5 6 6 7 7
3 3 2 2 1 1 2 2 2 2 2 2 2 3 3 3 3 3 3 2 2 2 3 3 4 5 6 6 6 7 7 7
3 4 3 2 2 2 2 2 2 2 1 1 2 3 3 3 3 2 2 2 2 3 4 5 5 6 6 6 7 7 8 8
4 4 3 2 2 2 2 2 2 1 1 2 3 3 3 3 3 3 3 2 3 4 4 5 5 6 7 7 7 7 9 8
4 4 4 3 3 2 1 2 1 1 1 2 3 3 3 3 3 3 3 3 3 3 4 5 5 6 6 6 6 7 8 9
4 4 3 3 2 2 1 1 1 1 1 2 3 3 3 3 3 3 3 3 3 3 4 5 6 6 6 6 7 6 7 8
4 3 3 3 2 2 2 2 2 2 3 2 3 3 4 4 3 3 3 4 5 5 5 6 7 7 7 7 7 7 8 8
5 4 4 3 3 3 2 2 3 4 3 3 3 4 5 5 5 6 7 6 6 7 7 7 8 8 7 7 8 8 8 8
5 4 4 3 3 3 3 3 4 4 4 4 4 6 7 6 7 7 7 6 6 6 7 8 8 8 8 8 8 9 8 8
5 5 5 4 4 5 5 4 4 4 4 5 7 6 7 7 7 7 6 7 7 7 7 7 8 8 8 8 9 9 8 8
6 7 6 6 5 5 5 5 4 4 5 6 6 7 6 6 6 7 7 7 7 8 7 8 9 8 8 8 9 9 8 8
7 7 5 5 4 4 5 5 4 5 6 6 7 7 6 6 7 6 7 7 7 9 7 9 8 8 8 9 9 8 9 10
6 6 5 4 4 3 4 4 5 5 5 6 7 7 6 6 6 7 7 7 7 8 8 8 8 8 9 9 9 9 10 10
6 6 5 4 4 3 4 5 6 5 5 6 6 6 6 7 6 6 6 7 8 8 8 8 8 8 9 9 9 9 9 9
6 5 5 4 3 4 4 5 5 6 7 8 7 6 6 6 6 7 7 7 8 8 8 8 8 8 8 8 8 10 10 10
6 6 5 5 5 5 4 5 6 6 6 6 6 6 6 6 6 7 7 7 8 8 8 8 8 8 8 8 9 10 10 11
5 5 4 4 4 4 5 5 6 6 6 6 5 6 6 7 7 7 8 8 8 8 8 8 8 8 9 8 10 11 11 11
5 5 5 5 4 5 6 6 6 6 6 6 6 6 7 7 7 8 8 9 8 8 8 8 8 9 9 9 9 11 10 10
5 5 5 5 6 7 7 6 6 7 7 7 7 7 8 8 9 9 8 8 9 9 9 8 8 8 8 9 9 11 10 9

GFSFLT1_con_lsi_042.txt.gz
Lid_Strength_Index
3 3 2 3 3 2 1 2 3 3 3 3 3 3 2 2 3 3 4 3 3 3 4 4 4 5 6 6 7 7 8 8
3 4 3 3 2 1 2 3 3 3 3 4 4 4 3 3 3 3 4 3 2 3 4 5 5 6 6 6 7 8 8 9
5 4 3 2 2 2 2 3 3 3 3 3 3 3 4 3 4 4 3 3 3 4 4 5 6 6 6 7 7 8 8 9
5 4 3 3 2 2 2 3 3 3 2 2 3 4 5 5 5 4 3 3 3 4 4 5 6 6 7 7 7 8 9 8
4 4 3 3 2 1 2 2 3 2 2 2 4 4 5 5 4 4 3 3 3 3 4 5 5 6 6 7 6 8 9 9
4 4 3 2 2 2 2 2 2 2 2 2 4 5 4 4 4 4 4 4 4 4 5 5 6 6 7 7 7 8 8 9
4 4 3 3 2 2 2 2 2 1 1 4 4 5 4 4 4 4 5 5 6 6 6 7 7 7 8 8 9 9 9 9
5 5 4 3 3 2 2 2 2 2 3 4 5 4 4 4 4 5 6 7 7 8 7 7 7 7 9 9 10 10 10 10
5 4 4 3 3 3 2 2 3 4 5 6 5 5 6 7 6 6 6 6 7 7 7 7 8 8 9 10 9 9 9 10
5 4 4 4 4 4 3 3 5 5 5 6 7 6 7 7 7 6 6 7 7 7 7 7 8 8 8 8 9 10 10 10
6 5 5 4 4 5 5 4 5 5 6 7 7 7 7 6 6 6 7 7 7 7 8 7 8 8 9 10 10 9 10 11
6 6 5 5 5 6 6 5 5 6 7 7 7 6 6 6 6 6 6 7 7 7 7 8 8 9 8 9 10 9 10 11
6 6 6 6 6 6 6 6 5 6 7 7 7 6 6 6 6 7 7 7 6 7 8 8 8 8 9 10 10 10 10 11
7 7 6 5 5 5 5 6 6 6 7 7 7 7 7 7 7 6 7 7 8 8 8 8 8 9 9 9 9 10 10 10
7 7 6 5 5 4 5 5 6 6 7 7 7 7 7 7 7 7 8 8 9 9 9 9 8 9 9 9 9 9 10 10
7 8 8 7 6 4 5 6 6 6 7 7 6 6 7 7 7 7 8 8 8 9 9 8 8 8 8 8 9 9 10 10
6 6 6 6 5 5 5 6 7 7 7 8 7 6 7 7 7 8 8 8 8 9 8 8 8 8 8 8 8 9 9 10
6 5 5 5 5 5 6 8 7 8 7 7 7 7 8 8 8 8 9 9 9 9 8 8 8 8 8 7 8 10 10 10
6 6 7 8 9 8 8 8 9 8 8 8 8 9 9 9 8 9 9 9 9 9 8 8 8 7 7 7 8 10 10 9

GFSFLT1_con_lsi_045.txt.gz
Lid_Strength_Index
3 2 2 2 2 3 2 2 2 2 2 3 4 4 4 4 4 4 4 4 4 5 5 5 5 6 6 7 7 8 8 8
3 3 2 2 3 3 2 3 2 2 3 4 5 5 5 5 3 3 4 4 4 5 5 5 5 6 6 7 7 8 9 9
4 3 3 4 4 3 3 2 3 3 3 4 4 5 4 4 4 4 4 4 4 4 5 5 6 6 7 7 8 8 8 9
5 4 4 4 4 3 2 2 3 3 4 4 5 5 5 5 6 5 5 4 4 4 5 6 6 7 7 8 8 8 9 9
4 5 5 4 4 3 1 2 3 3 3 4 5 6 5 5 6 6 5 4 4 4 5 6 6 6 7 7 7 8 8 9
6 5 4 4 3 2 2 2 2 2 3 3 5 5 5 6 6 6 5 4 4 5 5 6 6 7 8 8 9 9 8 9
5 5 4 4 3 2 2 2 2 2 3 3 4 4 6 6 6 6 5 6 6 6 7 8 8 8 9 9 9 9 9 10
5 4 4 3 3 2 2 2 2 2 2 3 4 4 5 6 6 5 7 8 8 8 8 8 8 8 8 9 9 9 9 9
5 4 4 3 3 2 2 2 2 2 2 3 5 5 6 5 5 5 7 7 8 8 7 7 8 8 8 8 8 8 9 10
5 4 4 3 3 3 2 2 2 3 4 6 6 6 7 7 6 6 7 7 7 8 7 8 8 8 8 7 9 9 10 10
5 4 4 3 3 3 3 3 4 5 7 7 7 7 7 7 6 7 7 7 7 7 7 7 8 8 8 9 10 10 10 11
5 4 4 4 4 5 4 4 6 7 8 8 8 8 7 7 7 7 7 7 8 7 7 7 8 8 9 9 10 9 10 10
5 5 5 5 5 5 5 5 6 7 8 8 7 7 7 7 8 8 8 8 7 7 7 8 8 9 9 9 10 10 10 11
7 6 5 5 5 6 6 6 6 8 7 7 7 7 7 7 7 8 7 8 9 9 9 8 9 9 9 10 10 10 10 10
8 8 6 6 6 6 7 7 7 8 8 8 7 8 7 7 8 8 8 8 9 8 8 8 8 8 9 9 10 10 10 10
7 8 8 8 7 7 7 7 7 7 7 7 8 8 8 8 8 9 8 8 8 8 8 8 8 8 8 8 9 9 10 9
7 7 7 7 6 6 7 8 7 7 7 8 7 7 8 8 8 8 8 9 9 8 8 8 8 8 8 8 8 9 9 9
7 6 6 6 6 6 8 8 8 8 8 8 8 9 9 9 8 8 8 8 8 8 9 8 8 8 7 6 6 8 8 8
10 9 9 9 9 8 9 9 9 9 10 10 9 9 9 9 8 8 8 8 9 10 10 9 9 7 7 6 5 8 8 8

GFSFLT1_con_lsi_051.txt.gz
Lid_Strength_Index
3 2 1 1 1 0 0 0 -0 -0 -1 -1 -1 -1 -1 -1 -0 0 1 1 2 2 2 3 3 3 4 4 3 3 3 4
3 2 1 1 1 1 1 1 0 1 0 1 1 1 0 0 1 1 1 2 2 2 2 3 3 3 4 3 4 3 4 4
3 3 2 2 1 1 1 1 0 0 0 0 -0 0 -0 0 1 2 2 2 2 2 2 3 3 3 4 3 3 4 4 4
4 3 3 2 2 1 1 1 0 0 0 -0 0 0 1 2 2 2 2 2 2 2 2 3 3 3 3 4 4 4 5 5
4 4 3 3 2 1 1 1 1 0 1 0 1 2 2 1 2 2 2 2 3 4 3 3 3 3 4 4 4 4 5 6
4 4 3 2 2 1 1 1 1 1 1 1 1 1 1 2 3 3 2 3 4 4 4 3 4 4 3 4 5 5 5 6
4 3 2 2 2 2 1 1 1 1 1 1 2 1 1 2 2 3 3 3 3 4 4 4 4 4 5 6 7 7 7 7
4 4 3 3 2 2 2 1 2 1 2 2 2 1 2 3 3 3 5 4 5 5 5 5 6 7 7 7 6 7 8 6
4 4 3 3 2 2 2 2 2 1 2 2 1 1 2 2 3 3 4 4 4 5 5 7 7 7 6 7 7 8 7 6
4 3 3 3 2 2 2 2 2 2 2 1 1 1 1 2 2 3 4 5 6 6 6 7 7 7 7 7 8 7 7 6
4 3 3 3 2 2 1 1 2 1 1 1 1 1 1 1 2 4 5 6 7 7 6 6 8 8 7 8 8 7 7 6
4 4 3 2 2 2 2 2 1 1 1 1 1 2 2 3 4 5 6 7 7 7 6 8 8 8 8 8 8 7 7 6
4 4 3 3 3 2 2 2 2 1 1 2 2 3 4 4 5 5 6 7 6 7 8 8 7 8 8 8 7 6 7 7
4 4 4 3 3 3 2 2 2 1 3 4 4 5 4 5 6 6 6 6 7 7 7 7 7 7 7 6 6 6 6 6
4 4 4 3 3 3 2 2 4 5 6 5 6 6 5 6 7 7 7 6 6 5 6 7 6 7 6 6 6 6 6 6
5 5 4 4 4 4 5 5 6 6 7 7 7 6 7 7 7 8 7 7 6 7 6 7 7 7 7 7 6 6 6 6
6 6 6 5 5 5 5 6 6 6 6 8 8 8 8 9 9 8 7 7 6 6 7 7 7 7 8 8 8 7 6 5
8 7 6 6 5 5 6 6 6 7 7 8 9 9 9 8 7 7 6 7 6 7 7 7 7 6 9 9 9 6 5 4
9 8 8 7 7 7 7 7 7 8 9 9 8 8 8 7 7 7 7 7 7 7 7 6 7 7 9 8 8 5 5 5

GFSFLT1_con_lsi_054.txt.gz
Lid_Strength_Index
2 2 1 1 0 -0 -0 -0 -1 -1 -1 -1 -1 -1 -1 -2 -1 -1 -1 -2 -2 -2 -2 -1 1 1 2 2 2 2 1 1
2 1 1 1 0 0 0 0 -0 -0 0 0 0 0 -0 -1 -1 -1 -1 -2 -2 -2 -1 -1 1 2 2 2 2 1 2 2
3 2 1 1 1 1 0 0 -0 -0 -0 -0 -0 -0 -1 -1 -1 -1 -1 -1 -1 -1 -1 -0 1 1 3 2 1 2 2 2
3 3 2 1 1 1 1 0 0 -0 -1 -0 -0 -1 -0 0 -0 -0 -0 -0 -0 -0 -1 -0 -0 1 3 2 1 2 2 2
3 3 2 2 1 0 0 0 0 -0 -0 -0 0 1 2 0 0 -0 -0 0 0 -0 -0 0 1 2 2 1 1 2 2 4
3 3 2 2 1 1 0 0 0 -0 -0 -0 0 1 0 -0 0 0 0 1 -0 1 1 1 2 1 1 1 2 2 4 6
3 2 2 2 1 1 1 1 0 0 -0 0 0 1 1 1 1 1 0 0 0 1 3 3 2 1 2 2 3 6 6 6
3 3 3 2 2 2 1 1 1 0 0 0 0 0 1 1 1 1 1 1 2 3 3 2 2 2 3 6 5 4 6 7
3 3 2 2 2 2 1 1 1 1 1 0 0 0 0 0 0 0 0 2 4 2 3 2 4 5 6 4 5 7 7 8
3 2 2 2 2 2 1 1 1 1 1 0 1 0 0 0 0 -0 0 3 4 5 5 6 6 5 5 7 7 8 7 6
3 3 2 2 1 1 1 1 1 1 1 0 1 0 0 0 0 1 2 4 6 6 7 7 5 6 7 6 7 7 7 6
3 3 2 2 1 1 1 1 1 1 1 0 0 0 0 0 1 1 3 5 6 6 6 6 8 7 7 7 8 7 7 5
3 3 2 2 2 2 2 1 1 1 1 1 1 1 1 2 3 3 5 6 6 5 6 7 7 6 7 7 7 7 5 5
3 3 3 3 2 2 2 1 1 1 1 1 2 3 4 4 5 6 6 6 6 6 7 7 6 7 7 7 6 5 5 5
4 3 3 3 2 2 2 2 1 2 3 4 5 5 5 5 6 6 6 6 6 6 6 6 6 6 6 6 5 5 5 5
4 4 3 3 3 2 2 2 3 4 5 6 6 6 6 6 5 5 5 6 6 4 6 6 6 6 6 6 6 6 5 5
4 4 3 3 3 3 3 3 3 4 6 7 7 7 7 7 6 5 6 6 6 6 7 7 6 6 8 8 7 5 6 5
4 4 4 3 3 3 3 3 3 4 5 7 6 6 6 5 6 6 6 6 6 6 6 6 6 6 8 8 9 7 6 6
5 4 4 3 3 3 3 3 4 4 6 6 6 6 5 5 5 6 6 7 6 6 6 5 5 5 9 9 10 7 6 6

GFSFLT1_con_lsi_057.txt.gz
Lid_Strength_Index
2 1 1 1 0 0 0 0 -0 -0 -1 -1 -1 -1 -1 -1 -1 -1 -1 -1 -1 -1 -1 -1 -1 -1 1 1 0 0 0 1
2 2 1 1 0 1 1 1 0 -0 0 1 1 1 -0 -0 -1 -1 -1 -1 -1 -1 -1 -1 -1 -0 0 0 1 1 2 1
3 2 1 1 1 1 1 0 0 -0 -0 -0 -0 -0 -0 -0 -1 -1 -1 -1 -1 -1 -1 -1 -1 -0 -0 1 1 2 1 1
4 3 2 1 1 1 1 0 0 -0 -0 -0 -0 -0 -0 0 -0 -0 -1 -1 -0 -0 -0 -1 -1 -1 1 1 2 2 3 2
3 3 2 2 1 1 0 0 0 -0 -0 0 0 1 1 1 0 -0 -0 -0 -0 0 1 0 -1 -1 0 2 2 2 1 3
3 3 2 2 1 1 1 0 0 -0 -0 -0 0 1 0 0 0 0 -0 -0 -1 0 -0 -0 -1 0 1 2 2 1 2 3
3 2 2 2 1 1 1 1 1 0 0 0 0 1 1 1 1 1 1 0 -0 -1 -1 1 1 2 2 2 0 1 4 5
3 3 3 2 2 1 1 1 1 1 0 0 0 0 1 1 1 1 1 1 1 0 -0 2 3 3 2 1 4 5 4 5
3 3 2 2 2 2 1 1 1 1 1 1 1 0 1 1 0 1 1 1 1 0 3 3 3 5 6 6 5 4 6 7
3 2 2 2 2 2 1 1 1 1 1 1 1 1 0 1 0 0 0 0 0 1 3 4 6 6 6 5 6 8 8 7
3 2 2 2 2 1 1 1 1 1 1 1 1 1 1 0 0 1 0 0 1 3 4 5 6 6 5 6 7 7 9 8
3 3 2 2 1 1 1 1 1 1 1 1 1 1 1 0 1 1 1 1 3 4 6 6 6 6 7 7 8 8 9 7
3 2 2 2 2 2 2 1 1 1 1 1 1 1 1 1 2 3 4 4 5 6 6 6 6 7 7 7 8 8 8 7
3 3 3 2 2 2 2 1 1 1 1 2 2 3 4 5 6 6 6 6 6 6 7 7 7 6 6 6 7 7 6 5
3 3 3 3 2 2 2 2 1 1 2 3 5 5 5 5 6 6 6 6 6 7 7 7 7 7 7 7 7 6 5 5
3 3 3 3 3 2 2 3 3 3 4 5 5 5 5 5 5 6 6 6 7 6 6 6 6 6 6 6 6 6 6 5
3 3 3 3 3 3 2 2 4 4 5 6 6 6 5 4 5 5 5 6 5 5 6 7 7 7 8 8 8 6 5 5
4 3 3 3 3 2 3 3 4 4 4 4 4 4 4 4 4 4 4 5 5 5 7 6 6 6 8 8 9 6 6 6
4 3 3 2 2 3 2 2 3 3 4 4 4 4 4 4 4 4 5 5 5 5 5 5 5 5 8 9 10 7 7 6

GFSFLT1_con_lsi_060.txt.gz
Lid_Strength_Index
3 2 2 1 1 1 1 1 2 2 2 2 1 0 -0 -0 -0 -0 -1 -1 -1 -0 0 -0 -0 0 1 2 2 2 1 2
2 2 2 1 1 1 1 1 1 0 1 1 1 1 1 0 -0 -1 -0 -0 -0 -0 -0 -0 0 1 2 2 2 3 2 3
3 3 2 2 2 1 1 1 1 1 1 0 1 1 0 0 -0 -0 -0 -0 -0 -0 0 0 0 1 2 2 2 3 3 3
4 3 3 2 2 2 1 1 1 0 0 0 0 0 0 1 1 0 0 -0 0 0 0 0 1 1 2 2 3 3 4 3
4 4 3 3 2 1 1 1 1 1 0 1 1 2 2 1 1 0 0 -0 0 1 1 1 1 1 1 2 2 3 3 5
4 4 3 2 2 2 1 1 1 1 1 1 1 2 1 1 1 1 1 1 1 0 0 0 0 0 1 2 3 4 3 4
4 3 2 2 2 2 1 1 1 1 1 1 1 2 2 2 1 2 1 1 0 -0 -0 0 1 1 3 3 4 3 4 6
4 4 3 3 3 2 2 2 2 1 1 1 1 1 1 2 2 2 2 1 1 1 0 1 2 2 3 3 4 6 6 7
4 3 3 3 3 2 2 2 2 1 1 1 1 1 1 1 1 1 1 1 1 1 0 2 3 3 5 5 6 5 6 8
4 3 3 3 2 2 2 2 2 1 1 1 1 1 1 1 1 1 1 1 2 2 2 4 5 6 5 5 5 8 9 8
3 3 3 3 2 2 2 2 2 1 1 1 1 1 1 1 1 1 2 2 3 3 3 5 6 6 6 7 8 8 8 7
3 3 3 2 2 2 2 2 2 2 1 1 1 1 1 1 1 2 2 3 3 4 4 6 6 6 7 7 8 8 8 7
3 3 3 3 3 2 2 2 2 2 1 1 1 2 2 2 2 3 3 4 4 5 5 7 7 7 7 8 7 8 7 7
4 3 3 3 3 2 3 2 2 2 2 2 3 3 5 6 6 7 7 6 6 6 6 8 7 7 7 8 8 7 7 7
4 4 3 3 3 3 2 2 3 3 3 4 5 6 6 7 7 6 6 7 7 8 8 7 7 7 7 7 7 7 7 6
4 4 4 3 3 3 3 4 4 5 5 6 7 7 6 6 7 7 7 7 8 8 8 7 7 7 7 7 7 7 7 7
4 4 4 3 3 3 4 5 6 6 7 7 6 6 6 6 7 7 7 7 7 6 7 7 7 7 8 8 8 7 7 7
3 4 4 3 3 4 5 5 5 6 6 6 5 5 5 5 5 5 5 5 6 7 7 7 7 7 9 9 9 8 8 9
4 4 4 3 3 3 4 4 4 5 5 5 5 5 5 5 5 5 5 5 6 6 6 6 7 6 9 10 11 10 10 9

GFSFLT1_con_lsi_063.txt.gz
Lid_Strength_Index
3 3 3 3 3 2 3 3 4 4 5 5 5 4 3 3 2 1 -0 -0 -0 0 0 1 1 2 2 3 3 3 3 3
3 3 3 3 3 2 2 2 3 3 3 4 4 3 2 1 1 1 -0 -0 -0 0 0 0 1 2 3 3 3 3 4 4
4 3 3 3 3 2 2 2 2 2 2 2 2 1 1 0 0 1 0 -0 -0 -0 -0 0 1 2 3 4 4 4 4 4
5 4 3 3 3 2 2 1 2 2 2 1 1 1 2 2 1 1 0 -0 -0 0 0 0 1 1 2 3 3 4 5 4
5 4 4 3 2 2 1 1 1 1 1 1 1 2 3 2 2 1 0 0 0 1 1 1 1 1 2 3 2 3 4 5
5 4 4 3 2 2 1 1 1 1 1 1 1 2 2 2 1 2 1 0 1 1 2 2 2 2 3 2 3 3 3 4
4 4 3 3 3 2 2 2 1 1 1 1 2 2 2 2 2 2 1 1 1 1 2 2 2 2 2 3 3 3 4 6
5 4 4 3 3 3 2 2 2 1 1 1 1 1 1 2 3 2 2 2 2 2 2 2 2 3 4 3 3 4 5 6
5 4 4 3 3 2 2 2 2 1 1 1 1 1 1 2 2 1 1 1 1 2 2 2 2 4 4 4 5 5 6 7
5 4 3 3 3 3 2 3 2 2 1 1 1 1 1 2 2 2 2 2 1 2 2 3 4 4 5 5 6 6 7 8
4 4 4 3 3 2 2 2 2 2 1 2 2 2 1 2 3 2 1 2 2 3 4 5 6 5 6 6 7 8 8 7
5 4 3 3 2 2 2 2 2 2 2 1 1 1 2 2 1 1 2 2 3 4 5 7 7 6 6 7 8 7 7 7
5 5 4 3 3 3 3 2 2 2 1 1 2 2 2 3 3 2 3 4 4 5 6 7 6 7 8 7 8 8 7 8
5 5 5 4 3 3 3 2 2 2 2 2 3 4 4 5 6 6 5 6 6 6 6 7 7 8 8 8 8 7 7 7
5 5 5 4 4 4 3 3 2 2 2 5 6 6 7 8 7 7 7 6 7 7 7 8 8 8 7 7 8 7 7 7
5 5 5 4 4 5 6 6 6 5 6 7 8 8 8 8 8 8 7 7 7 7 8 8 8 8 7 8 7 7 7 7
5 4 4 4 4 6 7 7 7 7 7 8 8 8 8 8 8 8 7 8 8 7 8 8 8 8 9 8 7 7 7 7
5 5 4 4 5 6 7 8 7 7 7 7 7 7 7 7 8 8 8 8 8 8 9 8 8 8 9 8 9 9 9 11
5 4 4 5 6 7 7 8 7 7 7 6 7 7 7 7 7 8 8 8 8 8 9 8 8 7 9 10 11 12 13 13

GFSFLT1_con_lsi_066.txt.gz
Lid_Strength_Index
4 4 3 2 2 2 3 3 4 4 4 4 5 4 3 3 3 2 2 2 1 1 1 1 2 2 3 3 4 4 3 4
4 3 3 3 2 3 2 3 4 5 5 5 5 5 4 3 4 3 1 1 -0 1 1 1 2 2 3 3 4 4 4 4
5 4 4 4 3 2 3 3 3 2 3 3 4 5 4 3 2 2 1 0 0 0 1 1 1 2 3 4 4 5 4 4
6 4 4 4 3 3 2 3 3 2 2 2 3 3 2 2 2 2 1 0 0 0 1 1 0 1 3 3 3 4 5 4
5 5 4 4 4 2 2 2 2 2 2 2 3 3 3 2 2 1 1 0 0 0 0 1 1 1 2 3 3 4 4 5
5 6 4 3 3 3 2 2 2 2 2 2 3 3 2 1 1 2 2 0 0 0 0 1 1 1 2 2 4 4 4 4
4 5 4 3 3 2 2 2 2 2 2 2 3 3 2 2 2 2 2 1 0 0 1 1 2 2 3 3 4 4 4 4
5 5 6 4 4 3 3 3 2 2 2 2 2 1 1 2 3 2 2 1 1 1 2 2 2 2 3 4 5 4 4 4
5 5 5 5 4 3 3 3 3 2 2 2 1 1 1 2 2 2 2 2 1 0 1 2 2 3 4 5 4 4 5 6
5 4 5 5 5 4 3 2 2 2 2 2 1 1 2 1 1 3 2 1 2 2 2 2 3 3 5 5 5 6 6 6
5 4 4 4 4 4 4 3 3 2 2 1 2 1 1 1 3 2 2 2 1 2 2 3 4 5 5 5 6 6 7 7
5 4 4 4 4 3 4 3 3 2 2 2 1 1 1 1 2 2 2 2 1 2 2 4 5 5 6 6 7 7 7 7
4 4 4 3 3 3 3 3 3 2 2 1 2 1 2 2 2 2 2 2 3 3 4 5 6 7 7 7 8 7 8 7
6 6 4 4 3 3 3 3 2 2 2 2 2 2 2 2 3 2 2 3 4 5 5 7 7 7 7 8 8 8 7 7
6 6 5 4 3 3 3 3 2 2 3 2 3 2 2 1 3 5 6 5 6 7 6 8 8 8 7 8 8 8 7 7
5 6 5 5 5 5 3 3 2 3 4 2 5 5 5 6 6 6 7 7 7 7 8 8 8 8 8 8 7 8 7 7
5 5 5 5 6 5 5 4 5 5 6 6 6 6 7 7 8 8 8 8 8 8 8 8 8 7 10 9 8 7 7 7
5 5 5 5 6 6 6 7 7 7 7 6 7 7 8 8 7 8 9 9 9 9 8 8 8 8 9 8 9 8 10 12
5 4 4 4 5 6 7 7 7 7 7 7 7 8 8 8 8 9 9 9 9 8 9 9 8 8 9 10 11 12 14 14

GFSFLT1_con_lsi_069.txt.gz
Lid_Strength_Index
5 4 3 3 2 2 2 2 3 3 3 3 4 4 4 3 2 2 2 3 2 3 3 3 3 3 3 4 4 5 5 5
5 4 3 3 2 2 3 3 3 3 3 3 4 5 5 4 3 2 2 2 1 3 3 2 2 2 3 3 4 5 4 5
6 6 4 3 2 2 2 3 3 3 3 3 3 5 5 4 3 3 2 2 2 2 2 2 2 3 3 3 4 5 5 5
6 6 4 4 3 2 3 3 4 4 3 3 3 3 4 4 3 3 3 2 1 1 1 1 2 2 3 3 4 4 5 4
6 6 5 4 4 3 3 3 4 3 3 3 3 3 4 4 4 4 4 2 1 1 1 1 1 1 2 2 3 4 4 5
6 6 6 4 4 3 3 3 3 2 2 3 4 4 4 4 4 3 3 2 1 0 1 1 1 1 1 2 4 4 4 5
5 5 6 5 4 3 3 3 3 2 2 3 3 4 4 3 3 2 2 2 1 0 0 1 1 2 2 2 3 4 4 5
5 6 6 6 5 4 3 3 3 2 2 3 3 4 3 3 3 2 2 2 2 1 0 0 1 2 2 4 4 4 5 5
5 5 6 6 5 4 4 3 3 3 3 3 3 3 3 3 2 2 3 3 2 1 0 0 1 2 3 4 4 5 5 5
5 4 5 6 5 4 4 3 3 3 3 2 3 3 3 2 2 2 2 2 2 2 1 1 2 2 2 3 4 5 5 6
5 4 4 5 5 5 4 4 4 3 3 3 2 3 2 2 2 2 2 2 1 1 2 2 2 2 4 4 5 6 6 7
5 4 4 4 5 5 5 4 4 4 3 3 3 3 2 2 2 2 2 1 1 1 1 2 2 4 4 5 6 7 7 7
5 4 4 4 4 4 5 5 4 3 3 3 3 3 3 1 1 1 1 1 1 1 2 2 4 5 5 6 8 7 8 8
5 5 4 4 4 4 5 5 5 4 3 3 3 2 2 2 1 1 1 1 2 2 2 4 5 5 6 7 7 8 8 7
7 6 4 4 3 4 4 4 4 4 3 3 3 2 2 1 1 2 2 4 4 4 4 4 5 7 7 8 8 8 8 8
7 6 6 4 4 3 3 3 3 3 4 3 3 2 2 2 2 3 5 5 6 6 7 7 7 8 8 8 8 8 8 8
6 6 5 5 4 4 4 4 3 3 3 3 3 4 4 4 5 6 6 6 7 7 7 8 9 8 11 10 9 8 8 8
7 5 5 4 4 4 4 3 3 3 4 5 5 5 6 7 7 7 7 7 8 9 9 9 9 9 11 10 9 7 8 10
7 4 4 5 6 4 5 4 4 5 6 6 7 7 7 7 7 8 9 9 9 10 9 9 9 9 10 10 11 11 12 13

GFSFLT1_con_lsi_072.txt.gz
Lid_Strength_Index
6 5 3 2 2 1 2 2 2 3 3 3 3 3 2 2 2 3 3 3 4 4 4 4 4 4 4 5 5 5 5 6
5 5 2 2 2 2 2 3 3 3 3 4 4 4 3 3 2 2 3 3 3 3 3 3 3 3 4 4 4 4 4 5
6 5 4 2 2 2 3 3 3 3 3 3 2 4 4 3 3 2 2 2 2 2 3 2 2 3 4 4 4 5 5 5
7 6 5 3 2 2 3 3 3 2 2 3 4 4 4 4 4 4 3 2 2 2 2 2 2 3 3 4 4 4 5 4
6 6 6 4 3 2 2 3 3 4 4 3 3 4 5 4 4 4 3 2 2 2 2 2 2 2 3 3 3 3 3 5
6 6 6 5 4 2 3 4 4 4 4 3 4 4 3 5 4 4 4 3 2 2 2 1 1 1 2 2 3 3 3 4
5 6 6 6 4 3 3 4 4 3 3 3 4 4 4 5 5 4 4 4 3 3 2 2 1 1 2 2 2 3 3 3
6 6 7 7 6 4 3 3 4 3 3 3 3 4 4 4 4 4 4 4 3 3 2 2 1 1 1 2 2 3 4 5
5 6 6 7 7 5 4 3 3 3 3 3 3 3 4 4 4 3 3 3 4 3 2 1 2 1 2 3 4 3 3 4
5 5 6 6 6 7 5 3 3 3 3 3 3 3 4 4 4 3 3 3 3 3 3 2 2 2 2 2 2 3 4 4
5 5 5 5 5 6 6 5 4 3 3 3 3 3 3 3 4 3 3 2 3 3 2 3 2 3 2 2 2 3 4 5
5 5 4 5 5 5 6 6 5 4 4 3 3 4 4 4 3 2 2 2 2 2 2 2 2 2 3 3 3 5 5 6
5 5 5 5 5 5 5 6 5 5 4 4 4 4 4 4 3 3 2 2 1 1 1 2 2 2 4 4 5 6 6 7
6 5 5 5 5 5 6 5 5 5 5 4 4 4 4 4 3 3 2 2 2 1 1 2 3 4 5 5 5 6 6 6
7 6 5 4 5 5 5 5 5 5 5 5 4 4 4 4 4 3 2 1 2 2 3 3 4 5 5 5 6 7 7 8
8 6 5 4 4 4 4 4 5 4 5 5 5 5 4 4 4 2 2 2 1 2 3 4 5 5 6 7 7 8 8 9
8 7 6 4 4 4 4 4 4 4 5 5 5 5 4 4 3 2 2 2 3 4 6 7 8 8 10 10 9 9 8 8
8 7 5 5 4 4 4 4 3 4 4 4 4 4 4 3 3 4 4 5 6 7 8 8 8 8 11 11 11 9 9 11
7 7 6 4 4 5 4 4 4 3 4 4 4 4 4 6 7 6 6 7 7 7 8 8 9 10 12 11 11 12 13 13

GFSFLT1_con_lsi_075.txt.gz
Lid_Strength_Index
3 3 2 2 1 1 1 1 2 2 1 1 2 2 1 2 3 3 3 3 3 3 4 4 3 3 3 3 4 3 4 5
4 3 2 2 1 1 1 2 2 2 2 2 2 3 2 2 2 3 3 3 3 4 4 3 2 2 2 2 3 3 3 3
4 4 3 2 2 2 2 2 2 2 2 1 2 2 2 2 2 3 2 3 3 3 2 2 2 2 2 2 2 2 2 3
5 5 4 2 3 2 2 2 2 2 2 3 3 3 3 3 3 3 2 3 2 2 2 1 1 1 1 1 1 2 2 2
4 5 5 4 2 1 1 2 2 2 2 2 3 3 4 3 3 2 2 2 2 1 1 1 0 0 -0 0 1 1 1 2
5 4 5 4 2 2 1 2 2 2 1 1 2 2 2 2 3 3 2 2 2 1 1 0 0 0 -0 -0 1 1 0 1
4 3 4 4 2 2 2 1 2 2 1 1 1 2 2 3 3 3 2 1 1 0 0 -0 -1 -1 -0 -0 -0 0 0 2
5 4 4 5 5 3 3 2 2 2 2 1 1 1 1 1 1 1 1 1 1 1 0 -0 -0 -1 -1 -1 -0 -0 0 0
5 4 4 4 5 4 3 3 2 2 2 1 1 1 1 1 1 1 1 1 0 -0 -0 -0 -1 -1 -1 -1 -0 -0 -0 -0
5 4 4 4 4 4 2 2 2 1 1 1 1 1 1 1 0 -0 0 -0 -0 0 -0 -0 -1 -1 -1 -1 -0 0 -0 0
5 4 4 3 3 4 3 2 2 1 1 1 1 1 1 1 1 1 1 -0 0 0 0 0 0 -0 -0 -0 0 -0 1 2
5 4 3 3 3 4 4 4 3 2 2 2 2 1 2 2 2 2 2 0 0 1 1 0 0 0 0 1 0 1 1 2
4 4 4 3 3 4 4 4 4 3 3 2 2 2 2 2 3 2 1 1 1 0 0 0 0 1 1 2 2 2 3 4
4 4 4 4 3 3 4 3 4 3 4 3 2 2 2 2 2 1 2 0 1 0 0 1 1 0 1 1 2 4 4 4
5 4 4 4 3 3 3 3 3 3 3 4 4 3 2 2 2 1 1 1 1 1 1 1 1 0 1 2 3 4 4 5
6 5 4 4 3 3 3 3 3 3 3 3 4 3 3 2 2 2 1 1 1 1 1 2 2 3 3 4 3 4 5 7
5 5 4 4 4 3 3 3 2 2 3 3 3 3 3 4 3 2 2 1 1 1 1 1 3 3 8 8 6 6 7 8
5 5 5 4 3 3 3 3 2 2 2 2 3 3 3 3 3 3 3 2 1 2 2 3 4 5 10 10 10 8 8 10
5 4 4 4 3 3 2 2 2 2 2 3 3 3 3 3 3 2 2 2 2 4 6 6 7 8 12 11 11 10 12 13

GFSFLT1_con_lsi_078.txt.gz
Lid_Strength_Index
3 2 1 1 1 0 1 1 1 2 1 0 0 1 1 2 3 3 4 3 2 2 2 2 2 3 3 3 3 3 3 3
2 2 1 1 1 1 1 1 1 1 1 1 2 2 2 2 2 2 2 3 2 2 2 2 2 3 2 3 2 3 3 3
3 3 2 2 2 1 1 1 2 1 1 0 1 2 2 2 3 3 3 3 2 2 1 1 1 1 2 2 1 2 1 3
4 4 3 2 2 1 2 1 2 1 1 1 1 1 2 3 3 3 3 2 2 2 2 1 2 1 1 1 1 2 2 2
4 4 3 2 2 1 1 1 2 1 1 1 1 2 3 2 3 3 3 2 2 2 1 0 1 0 0 0 1 1 0 2
4 3 3 2 1 2 1 1 1 1 1 1 1 2 1 1 2 2 3 2 1 2 1 1 1 -0 -0 -0 -0 -0 -0 1
3 3 2 2 1 1 1 1 1 1 1 1 1 2 2 2 2 3 3 3 3 2 2 0 0 -0 -0 -0 -0 -0 -0 0
4 3 3 3 2 2 2 1 2 1 1 1 1 1 1 2 2 2 2 2 2 2 1 1 -0 -1 -1 -1 -0 -0 -0 0
3 3 3 3 2 2 2 2 2 1 1 1 1 1 1 1 1 0 1 1 0 1 1 0 -1 -1 -1 -1 -1 -0 -1 -0
3 3 3 3 2 2 2 2 1 1 1 1 1 1 1 1 0 0 0 -0 -0 -0 -1 -0 -1 -1 -1 -1 -0 -0 -0 -0
3 3 3 2 2 2 1 1 1 1 1 1 1 0 0 0 0 0 0 -0 -0 -0 -0 -0 -0 -1 -1 -1 -0 -0 -0 -0
3 3 3 2 2 2 2 1 1 1 1 1 1 1 0 0 0 0 -0 -0 -0 -0 -0 -0 -0 -0 -0 -0 -0 -0 0 0
3 3 3 2 2 2 2 2 1 1 1 1 1 1 0 1 1 0 -0 0 -0 -0 -0 -0 0 -0 -0 0 0 0 1 1
3 3 3 3 3 2 2 2 2 1 1 1 1 1 1 1 1 0 0 0 0 -0 0 0 0 0 0 -0 0 1 1 0
3 3 3 3 2 2 2 2 1 1 1 2 2 1 1 1 0 0 0 -0 0 0 0 0 0 0 0 0 0 1 0 0
3 3 3 3 3 2 2 2 2 1 2 2 2 2 1 1 1 1 0 0 0 0 0 0 0 0 0 1 1 1 1 2
3 3 3 3 3 3 2 2 2 1 2 2 1 1 2 2 1 1 1 1 0 0 1 1 1 1 5 7 3 1 2 3
4 3 3 2 2 2 2 2 1 2 2 2 2 1 1 1 1 2 2 1 1 1 1 1 1 0 8 9 9 1 3 5
4 3 3 2 2 2 2 1 2 2 2 2 2 2 2 1 1 2 2 2 2 1 1 1 1 1 10 10 10 6 8 9

GFSFLT1_con_lsi_081.txt.gz
Lid_Strength_Index
2 2 1 1 1 0 1 0 1 0 0 0 1 2 2 2 2 3 3 3 3 3 3 3 3 3 3 2 2 2 3 3
2 2 1 1 1 1 1 1 1 1 1 2 2 3 3 3 3 4 4 3 3 3 3 3 3 3 3 2 2 2 2 2
3 2 2 2 1 1 1 1 1 1 1 1 2 2 2 3 3 5 4 3 3 2 2 2 2 3 1 1 2 2 2 2
3 3 2 2 2 1 1 1 1 1 1 1 2 2 3 4 4 5 4 3 2 1 1 1 2 0 1 0 0 1 2 2
3 3 3 2 2 1 1 1 1 1 0 1 2 3 4 3 4 3 3 2 2 1 1 1 0 0 0 1 0 0 1 2
3 3 3 2 1 1 1 1 1 1 1 1 1 2 2 2 2 3 4 3 2 2 1 1 1 1 -0 0 0 0 0 1
3 2 2 2 1 1 1 1 2 1 1 1 1 2 2 2 3 3 3 3 3 2 1 2 1 1 0 -0 -0 0 0 0
3 3 3 2 2 2 1 1 2 1 1 1 1 1 1 2 2 3 3 3 3 3 2 1 1 1 -0 -0 -0 0 0 1
3 3 3 3 2 2 2 2 2 2 1 1 1 1 1 1 1 2 2 2 2 2 2 2 1 1 0 -1 -0 -0 -0 0
3 3 3 2 2 2 2 2 1 1 1 1 1 1 1 1 1 0 1 1 1 1 0 0 0 -0 -0 -0 0 0 -0 0
3 3 3 2 2 2 1 1 1 1 1 1 1 1 1 0 0 1 0 0 -0 -0 -0 -0 0 -0 -0 -0 0 -0 0 0
3 3 2 2 2 2 2 2 1 1 1 1 1 1 1 1 1 1 0 0 0 0 0 0 0 0 -0 0 0 0 1 0
3 3 2 2 2 2 2 2 2 1 1 1 1 1 1 1 1 0 0 0 0 0 0 0 0 0 0 0 1 0 1 1
3 3 3 3 2 2 2 2 2 1 1 1 1 1 1 1 1 0 0 0 0 0 0 1 1 0 0 0 0 1 1 1
3 3 3 3 2 2 2 2 1 1 1 1 2 1 1 1 1 1 1 0 1 0 0 0 0 0 0 0 0 1 1 1
3 3 3 3 3 2 2 2 2 1 2 2 2 1 1 1 1 1 1 1 1 0 1 0 0 0 1 0 1 1 1 1
4 3 3 2 2 2 2 2 2 1 2 2 1 1 1 1 1 1 1 1 1 1 1 1 1 1 5 7 3 1 1 1
3 3 3 2 2 2 2 2 1 2 2 2 2 1 2 1 1 1 1 1 1 1 1 1 1 1 7 8 8 1 1 1
3 3 3 2 2 1 1 1 2 2 2 2 2 2 2 1 1 2 1 1 1 1 1 1 1 1 8 8 9 3 2 2

GFSFLT1_con_lsi_084.txt.gz
Lid_Strength_Index
3 2 2 1 1 1 1 1 1 1 0 1 1 2 2 2 3 3 3 3 3 3 3 3 2 3 3 3 4 4 5 5
3 2 2 2 1 2 2 2 1 1 1 2 2 3 3 3 3 3 3 4 3 3 3 3 3 4 4 4 4 5 5 5
3 3 2 2 2 2 2 2 1 1 1 1 2 2 3 4 3 4 4 4 3 3 3 4 4 4 4 4 4 5 4 3
4 4 3 3 3 2 2 2 1 1 1 1 2 3 3 4 4 4 4 4 3 4 4 4 4 4 4 4 4 4 4 4
4 4 3 3 3 2 1 1 1 1 1 2 3 4 5 4 5 5 5 4 4 4 4 3 3 3 3 3 2 3 3 4
4 4 3 3 2 2 2 2 1 1 1 2 3 3 4 4 5 5 5 4 3 2 2 2 3 1 2 2 2 2 2 2
3 3 3 3 2 2 2 2 2 1 1 2 2 3 3 4 4 5 5 4 3 3 2 2 1 2 1 1 2 2 2 2
4 4 4 3 3 3 2 2 2 2 1 1 1 2 3 3 4 4 4 4 4 3 2 2 2 2 1 1 1 1 1 2
4 4 4 3 3 3 2 2 2 2 2 2 1 1 2 2 2 3 4 4 4 3 2 2 2 1 1 1 2 2 1 1
4 3 3 3 3 3 2 2 2 2 2 1 1 1 1 2 2 2 3 3 3 2 2 1 1 1 1 1 1 1 1 1
4 3 3 3 3 2 2 2 2 2 2 1 1 1 1 1 1 2 2 2 2 2 2 2 2 1 1 1 1 0 1 1
3 3 3 3 2 2 2 2 2 2 2 1 1 1 1 1 1 1 2 2 2 2 2 2 2 1 1 1 1 1 1 1
3 3 3 3 3 3 3 2 2 2 2 2 2 1 1 1 1 1 1 1 1 2 2 2 2 2 2 2 2 1 2 2
3 3 3 3 3 3 3 2 2 2 2 2 2 2 2 2 1 1 1 1 1 1 1 1 1 1 2 2 2 1 1 1
4 4 4 3 3 3 3 3 2 2 2 2 2 2 2 2 1 1 1 1 1 1 1 1 1 1 1 1 1 1 1 1
4 4 3 3 3 3 3 2 2 2 2 2 2 2 2 1 1 1 1 1 1 1 1 1 1 1 1 1 1 1 1 1
4 4 3 3 3 3 3 2 2 2 2 2 2 2 2 2 2 2 1 1 1 1 1 1 1 1 5 7 3 1 1 2
4 4 3 3 3 2 3 2 2 2 2 2 2 2 2 2 2 2 2 2 1 2 2 1 2 1 7 8 8 2 2 2
4 4 3 3 3 2 2 2 2 2 3 2 2 2 2 2 2 2 2 2 2 2 2 2 2 1 8 9 9 4 2 2

GFSFLT1_con_lsi_087.txt.gz
Lid_Strength_Index
4 3 3 3 2 2 2 2 2 1 1 1 2 2 2 2 2 1 0 1 1 0 1 2 2 2 3 3 4 5 4 5
4 3 3 3 3 2 2 2 2 1 2 3 3 3 3 3 2 2 1 1 1 2 2 3 3 3 4 4 5 5 6 5
4 3 3 3 3 2 2 2 2 1 1 2 2 3 3 3 3 3 2 2 2 2 3 3 3 4 4 5 6 6 6 5
5 4 4 4 4 3 3 3 2 1 1 2 2 3 4 4 4 4 3 2 2 3 3 3 3 4 4 5 5 6 6 5
4 4 4 4 4 3 3 2 2 1 1 2 3 4 4 4 4 4 4 3 3 3 3 3 4 4 5 5 5 5 5 6
5 4 4 4 4 4 3 2 1 1 1 2 3 4 3 4 4 4 4 4 4 4 4 4 4 4 4 4 4 4 4 5
4 4 3 4 4 4 3 3 2 1 1 2 3 4 4 5 5 5 5 4 4 4 4 4 3 3 3 4 3 3 3 3
5 5 4 4 4 5 4 3 2 2 1 2 2 3 3 4 5 5 5 4 5 5 4 4 4 3 2 2 3 3 3 2
5 4 4 4 4 5 4 3 2 2 2 2 2 2 3 3 4 5 4 4 4 4 3 2 3 3 2 2 2 2 2 2
5 4 4 4 4 4 4 4 2 2 2 1 1 2 3 3 4 4 4 4 3 3 2 2 2 2 2 1 2 2 2 2
5 4 4 3 4 4 4 4 2 2 2 1 1 1 2 3 3 3 4 4 3 3 2 2 2 1 1 1 1 1 2 2
6 4 4 3 3 4 4 4 2 2 2 2 2 1 2 2 2 3 3 3 3 3 3 3 2 2 1 1 1 1 1 1
5 4 4 4 4 4 4 4 3 2 2 2 2 1 1 1 2 2 2 3 3 3 3 3 2 2 2 2 2 2 2 1
7 5 4 4 4 3 4 4 3 3 2 2 2 2 2 2 1 1 1 2 3 3 3 3 3 2 2 2 2 3 3 2
5 6 6 4 3 3 3 4 3 3 2 2 3 3 2 2 1 1 1 1 2 3 3 3 3 3 3 2 2 2 2 2
5 5 6 6 5 4 3 3 3 3 4 2 3 3 2 2 1 1 1 1 2 2 3 3 3 3 3 2 2 2 2 3
5 4 4 4 4 4 4 3 3 3 4 4 3 2 2 2 2 2 2 2 1 2 2 3 3 3 6 7 4 2 2 2
5 5 4 4 4 3 4 4 3 3 3 3 3 3 3 2 2 2 2 2 2 2 2 2 2 2 7 8 8 2 2 2
5 4 4 4 5 4 3 3 3 4 3 3 3 3 3 3 2 2 2 2 2 2 2 2 2 1 8 8 10 4 2 2

GFSFLT1_con_lsi_090.txt.gz
Lid_Strength_Index
4 3 3 2 2 2 2 2 3 2 2 2 2 2 2 2 2 1 0 0 0 0 1 2 3 4 4 3 5 5 5 5
3 3 3 2 2 2 3 3 3 2 2 2 3 3 2 2 2 1 1 1 1 1 2 2 3 4 4 3 4 5 5 5
4 4 4 3 3 3 3 3 2 2 2 2 2 3 3 3 2 2 0 1 1 1 1 1 2 4 4 4 5 6 5 5
5 4 4 3 3 3 3 3 2 2 2 2 2 3 3 4 4 3 1 1 1 1 2 2 3 4 4 4 5 5 5 6
5 4 5 4 3 3 3 3 3 2 1 2 3 4 4 4 4 4 2 2 2 2 2 2 3 4 4 4 4 4 5 6
5 5 4 4 4 4 4 3 3 2 1 2 3 3 3 3 4 4 4 3 3 2 2 3 4 3 4 4 5 5 4 5
5 4 4 5 4 4 4 4 3 2 1 2 3 3 4 4 4 4 4 4 4 4 3 3 3 3 4 4 4 4 4 5
5 5 5 5 5 5 4 4 3 2 2 2 3 3 4 4 4 4 4 5 5 5 4 4 4 3 3 4 4 4 4 4
5 5 5 5 5 5 4 4 3 2 2 2 2 3 4 4 4 3 4 4 4 4 4 5 4 3 3 3 3 3 4 3
5 5 4 5 5 5 5 4 3 2 2 2 2 2 3 4 3 4 4 4 4 4 4 4 4 3 2 3 3 4 4 4
5 5 4 4 5 5 5 4 3 2 2 2 1 2 2 3 3 5 4 4 3 3 3 2 2 2 2 2 2 2 3 3
5 5 4 4 4 5 5 4 4 3 2 2 2 2 2 2 3 4 4 4 4 4 3 3 2 2 2 2 1 2 2 2
6 5 4 4 5 5 5 4 4 4 2 2 2 1 2 2 3 3 3 4 4 3 3 3 3 2 2 2 3 2 2 2
6 5 5 4 5 5 5 4 4 4 3 2 2 2 2 2 2 3 3 3 4 4 3 3 3 3 3 3 2 3 3 2
6 7 5 4 4 4 4 4 4 4 4 4 3 2 2 2 1 2 2 3 3 4 4 4 4 3 3 3 2 2 2 2
5 5 5 5 5 4 3 4 4 4 4 4 4 3 2 1 2 1 1 2 3 3 4 4 4 4 4 3 3 3 3 3
5 5 5 5 5 4 4 3 3 3 4 4 4 4 4 3 3 2 2 2 2 3 4 4 4 4 7 8 5 4 3 3
5 6 6 6 6 4 4 4 4 3 3 3 3 3 3 3 3 3 3 2 2 2 3 3 4 4 8 9 9 4 4 4
8 8 8 8 7 6 6 6 5 5 5 4 4 3 3 3 3 3 3 3 3 3 2 2 2 3 8 9 10 5 4 4

GFSFLT1_con_lsi_093.txt.gz
Lid_Strength_Index
4 3 3 2 3 3 2 2 3 3 3 3 4 4 3 3 2 1 0 0 0 -0 1 2 3 3 4 4 5 6 6 4
4 3 3 2 3 3 2 3 2 2 3 4 4 4 3 3 3 3 1 0 1 0 1 2 3 5 4 3 4 5 5 5
4 4 4 3 3 2 2 3 2 3 2 3 3 3 2 3 2 3 2 0 0 0 1 3 3 4 4 4 4 5 5 4
5 5 4 3 3 3 3 3 3 3 3 3 3 3 3 3 3 2 1 0 0 1 1 2 3 4 4 4 5 5 6 6
5 5 4 4 3 3 3 3 3 3 3 4 3 4 4 3 4 3 2 0 0 0 1 2 3 4 3 4 4 4 5 6
5 5 4 3 3 3 3 3 4 3 4 3 3 4 4 4 4 3 3 2 1 1 1 2 2 4 4 4 4 4 4 5
4 4 4 4 3 3 3 4 4 3 4 3 3 3 3 4 4 4 4 3 3 2 2 2 3 4 4 5 5 4 4 4
5 5 5 4 4 4 4 4 4 4 4 3 2 2 3 5 3 3 4 4 4 4 3 3 4 4 3 4 4 4 4 4
5 5 5 4 4 4 4 5 4 4 3 3 2 2 4 4 4 3 3 4 4 4 4 3 3 3 3 3 4 4 4 4
5 5 4 4 4 4 5 4 4 4 3 2 2 3 2 4 4 3 4 4 4 4 4 4 3 3 3 3 3 4 4 4
5 5 4 4 4 4 4 4 4 4 3 2 2 3 3 4 4 4 4 4 4 4 4 4 4 3 3 2 3 3 3 3
6 5 4 4 4 5 5 5 4 4 3 2 2 2 3 3 4 4 4 4 4 4 3 3 3 3 3 3 3 2 3 3
5 5 4 4 5 5 5 5 5 4 3 2 2 2 2 3 3 4 4 4 4 4 4 3 3 3 3 3 3 2 3 3
5 5 5 5 5 5 5 5 5 4 3 3 3 2 2 2 3 4 4 4 5 4 4 4 3 3 2 3 3 3 3 3
7 6 5 5 5 5 5 5 4 4 4 4 4 3 2 2 2 3 3 4 4 4 4 4 4 3 3 2 2 3 3 3
6 7 6 6 6 5 4 4 4 4 4 4 4 4 3 3 2 2 3 3 4 4 4 5 4 4 4 4 3 3 3 3
8 8 7 7 6 6 6 5 4 3 4 4 4 4 4 4 3 3 3 3 3 3 4 4 5 5 7 9 5 4 3 3
9 9 9 9 8 7 8 6 5 4 3 3 3 3 3 3 3 3 3 3 3 4 4 4 4 4 9 9 9 4 4 4
11 11 11 11 9 8 8 7 7 7 8 7 7 7 5 3 3 3 3 3 2 3 3 3 4 4 9 9 10 6 5 5

GFSFLT1_con_lsi_096.txt.gz
Lid_Strength_Index
7 3 3 3 2 3 3 2 2 4 3 4 4 4 3 2 1 0 0 0 -0 0 0 1 2 3 4 4 5 5 4 5
8 6 3 3 3 3 3 3 2 2 3 3 3 3 3 4 4 2 0 -0 0 -0 1 2 2 2 3 4 5 5 5 4
8 5 3 3 3 3 3 3 2 2 2 2 4 3 3 5 4 3 3 2 0 0 1 2 2 4 4 5 5 4 4 4
7 5 4 3 3 3 3 3 2 2 2 3 3 3 4 4 3 4 3 2 1 0 1 2 3 3 4 4 5 4 5 4
7 5 4 4 3 2 3 2 3 3 3 4 4 4 4 4 4 3 2 3 1 0 1 2 2 3 4 3 3 4 4 5
6 5 4 4 3 3 2 2 3 3 4 4 4 5 3 3 4 3 2 2 1 0 1 1 2 4 3 3 4 4 4 4
5 4 4 4 3 2 3 3 3 4 4 5 5 5 4 4 3 3 3 2 1 0 0 1 2 4 4 4 3 4 4 4
8 5 5 4 4 3 3 3 4 4 4 5 5 4 4 3 4 3 3 3 2 2 1 2 2 3 3 3 4 4 4 4
9 5 4 4 4 3 3 4 4 4 4 5 4 4 4 3 4 2 3 3 3 2 2 3 3 3 3 3 4 4 4 4
8 5 4 4 4 3 3 4 4 4 4 5 4 3 4 4 4 4 2 3 3 3 2 3 4 3 3 3 4 4 4 4
6 5 4 4 3 3 3 4 4 4 4 4 4 3 3 4 4 4 4 3 3 3 3 3 3 3 2 3 3 3 4 4
6 5 4 4 3 3 4 4 4 4 4 4 4 3 3 4 4 4 4 4 4 3 3 3 3 3 2 2 2 2 3 3
5 5 4 4 4 4 4 4 4 4 4 4 3 3 3 4 5 5 4 4 4 4 4 4 4 3 3 2 2 2 2 3
5 5 5 5 4 4 4 5 4 4 4 4 4 3 3 4 4 4 5 5 4 4 4 4 4 3 3 3 3 3 3 3
7 7 5 5 5 5 5 5 5 4 4 4 4 4 4 4 4 4 5 5 5 5 4 4 4 4 3 3 3 3 3 2
9 9 8 8 7 6 4 4 4 4 4 4 4 4 4 4 4 4 4 4 4 4 4 4 4 4 3 3 3 3 3 3
10 10 10 9 9 8 7 6 6 3 4 4 4 4 3 4 4 5 5 5 5 5 5 5 5 4 7 8 5 4 4 4
11 11 12 10 9 9 9 8 7 7 7 7 6 4 3 3 3 3 4 5 5 5 6 6 6 5 9 9 9 4 4 4
13 13 13 12 11 10 10 9 9 9 9 9 10 8 7 7 5 4 3 3 3 3 4 4 4 4 9 10 10 7 5 5

GFSFLT1_con_lsi_099.txt.gz
Lid_Strength_Index
4 4 1 1 1 1 1 1 1 1 0 0 -0 0 1 0 -0 -0 -0 -1 -1 -1 -0 0 1 3 4 4 4 3 3 2
4 3 3 2 1 2 1 1 2 2 1 2 2 2 1 1 1 -0 -0 -0 -0 -0 0 1 0 2 3 4 4 4 3 2
4 4 3 2 2 2 2 1 2 1 1 1 1 2 2 1 1 2 0 -1 -0 0 0 1 1 1 3 4 4 4 3 3
4 3 2 2 2 2 2 2 2 1 1 1 2 3 2 2 2 2 2 1 1 -0 1 1 2 2 3 3 3 3 3 2
4 3 3 3 2 2 2 1 1 1 1 2 2 2 3 2 2 1 0 0 -0 1 -0 1 2 2 3 4 3 2 3 2
5 4 3 2 2 2 2 1 1 1 2 2 3 3 2 1 1 1 0 -0 -0 -0 0 2 2 3 2 3 4 2 2 2
4 3 2 3 2 2 2 2 2 2 3 3 3 3 2 2 2 1 1 1 0 -0 -0 -0 1 2 2 3 3 3 3 3
4 4 4 3 3 3 2 2 3 3 3 4 3 2 1 2 1 1 1 2 1 0 0 0 1 1 1 2 3 4 3 3
5 4 4 4 3 3 3 3 3 3 3 4 3 2 1 1 1 1 1 2 2 0 0 1 2 2 2 3 3 4 3 3
5 4 3 4 3 3 3 3 2 3 4 4 3 2 1 1 1 1 1 1 2 1 1 2 2 2 2 3 4 4 3 3
5 4 4 3 3 3 2 2 3 3 4 4 3 2 1 1 1 1 1 1 2 2 2 2 3 2 2 3 3 3 4 4
5 5 4 3 3 3 3 2 4 4 4 4 3 2 1 1 1 1 0 1 2 2 2 2 2 2 2 2 3 2 3 3
5 5 4 4 3 3 3 3 3 3 3 3 3 2 1 1 1 1 1 1 2 1 2 2 2 2 1 1 2 2 2 3
8 5 5 4 4 3 3 3 3 3 3 4 3 2 2 1 1 2 1 1 1 1 1 2 3 2 2 2 2 1 2 2
10 9 8 7 4 4 4 4 3 4 3 4 3 3 3 1 1 1 2 1 1 1 1 1 1 2 2 2 2 2 1 1
12 11 10 9 8 7 6 4 3 3 4 4 4 3 3 3 1 1 1 2 1 1 1 1 1 1 1 1 2 3 3 2
12 12 13 11 10 10 9 9 5 3 3 3 3 3 3 3 3 2 2 2 2 2 2 2 1 2 7 8 4 1 2 2
13 13 13 12 11 10 10 10 10 10 9 9 8 7 6 5 3 3 3 3 3 3 3 3 3 3 9 9 9 2 2 2
14 14 14 13 11 11 11 11 11 12 12 12 11 10 9 9 8 8 7 6 3 4 3 4 3 8 13 11 11 5 4 4